Location: Carella
(45.8167°N, 9.2667°E)
Time: 07:33:15
(UTC+00:00)

USA 234 - Pass Details

Date: 30 March 2020
Orbit: 1102 x 1106 km, 123.0° (Epoch: 14 May)

Event Time Altitude Azimuth Distance (km) Brightness Sun altitude
Rises 21:49:28 0° 59° (ENE) 3,924 6.2 -35.5°
Reaches altitude 10° 21:52:07 10° 51° (NE) 2,966 5.6 -35.7°
Maximum altitude 21:58:01 38° 347° (NNW) 1,637 4.5 -36.2°
Drops below altitude 10° 22:03:54 10° 283° (WNW) 2,964 5.9 -36.6°
Sets 22:06:33 0° 275° (W) 3,922 6.5 -36.8°
